Regional Weather Roundup
Issued by NWS Charleston, SC

Current Version | Previous Version | Graphics & Text | Print | Product List | Glossary On
Versions: 1 2 3 4 5 6 7 8 9 10 11 12 13 14 15 16 17 18 19 20 21 22 23 24 25 26 27 28 29 30 31 32 33 34 35 36 37 38 39 40 41 42 43 44 45 46 47 48 49 50
000
ASUS42 KCHS 280710
RWRCHS

REGIONAL WEATHER ROUNDUP
NATIONAL WEATHER SERVICE CHARLESTON SC
200 AM EST SUN DEC 28 2014

NOTE: "FAIR" INDICATES FEW OR NO CLOUDS BELOW 12,000 FEET WITH NO
SIGNIFICANT WEATHER AND/OR OBSTRUCTIONS TO VISIBILITY.

NOT ALL STATIONS ARE QUALITY CONTROLLED BY THE NATIONAL
WEATHER SERVICE. USE DATA WITH CAUTION...ESPECIALLY
DEWPOINT OBSERVATIONS.

SCZ027-030-031-034>040-042>050-280800-
...SOUTHEAST SOUTH CAROLINA...

CITY           SKY/WX    TMP DP  RH WIND       PRES   REMARKS
N CHARLESTON   MOCLDY    53  49  86 CALM      30.18F
WATERFRONT PRK   N/A     55 N/A N/A CALM        N/A
MOUNT PLEASANT PTSUNNY   54  52  94 CALM      30.19S
PINOPOLIS      NOT AVBL
MONCKS CORNER  FAIR      54  50  87 CALM      30.18F
SUMMERVILLE    FAIR      52  52 100 CALM      30.18F
BEAUFORT MCAS  PTCLDY    52  49  89 CALM      30.18F
BEAUFORT ARPT  PTSUNNY   52  52 100 CALM      30.17F
HILTON HEAD IS PTCLDY    52  50  93 CALM      30.19F
WALTERBORO     PTSUNNY   54 N/A N/A CALM      30.18F
ALLENDALE      CLOUDY    55  54  94 CALM      30.14F

...SOUTHERN MIDLANDS AND PEE DEE...

CITY           SKY/WX    TMP DP  RH WIND       PRES   REMARKS
GEORGETOWN     NOT AVBL
KINGSTREE      NOT AVBL
ORANGEBURG     CLOUDY    53  51  93 CALM      30.17F
BARNWELL         N/A     54  54 100 CALM      30.18F
AIKEN          LGT RAIN  54  54 100 SE5       30.17F
MANNING        PTSUNNY   54 N/A N/A CALM      30.17F
COLUMBIA       LGT RAIN  51  48  89 SE3       30.15F
SUMTER         LGT RAIN  52  50  93 CALM      30.15F
FLORENCE       CLOUDY    53  48  83 SW3       30.18F
MYRTLE BEACH   CLOUDY    52  48  87 CALM      30.20R
N MYRTLE BEACH CLOUDY    51  48  89 CALM      30.18S

$$

GAZ063-065-086>088-099>101-113>116-118-119-134>141-150-280800-
...SOUTHEAST GEORGIA...

CITY           SKY/WX    TMP DP  RH WIND       PRES   REMARKS
SAVANNAH ARPT  MOCLDY    53  49  86 CALM      30.17F
HUNTER AAF     PTCLDY    51  50  94 CALM      30.16F
FORT STEWART   PTCLDY    51  49  92 CALM      30.16F
STATESBORO     CLOUDY    57  57 100 CALM      30.16F
SYLVANIA       CLOUDY    56  54  92 CALM      30.17F
CLAXTON        PTSUNNY   54  54 100 CALM      30.16F

...CSRA...CENTRAL AND FAR SOUTHEAST GEORGIA...

CITY           SKY/WX    TMP DP  RH WIND       PRES   REMARKS
THOMSON        CLOUDY    53  53 100 CALM      30.20R
AUGUSTA-BUSH   LGT RAIN  52  51  97 CALM      30.15F
AUGUSTA-DANIEL LGT RAIN  56  53  90 CALM      30.15F
SWAINSBORO     CLOUDY    61  61 100 S6        30.15F
VIDALIA        MOCLDY    57  54  88 S3        30.16F
EASTMAN        FAIR      57  57 100 SE7       30.16F
HAZLEHURST     PTSUNNY   60  58  93 SE3       30.15F
ALMA           PTCLDY    56  53  90 CALM      30.16F
WAYCROSS       PTCLDY    55  55 100 CALM      30.17F
JESUP          FAIR      54  52  94 CALM      30.17F
BAXLEY         MOCLDY    59  55  88 CALM      30.16F
BRUNSWICK        N/A     54  52  94 CALM      30.17F VSB 1
SAINT SIMONS   PTCLDY    58  56  93 CALM      30.16F

$$

SCZ027-028-034-036>038-045-046-048>050-GAZ119-141-280800-
...LAKE AND SUPPLEMENTAL COASTAL OBSERVATIONS...

STATION/POSITION TIME  TEMP    WIND        PRES    WAVE   SWELL
                       AIR SEA DIR/SP/G            HT/PER HT/PER/DIR
                 (UTC) (F)     (DEG/KT/KT) (MB)    (FT/S) (FT/S/D)
UPR LAKE MARION  NOT AVBL
WINYAH BAY       0600   51     310/  2     1021.0F
LAKE MURRAY      0600   53      CALM  /  1 1021.0F
ACE BASIN NERRS  0600   50        CALM     1022.0F
FORT PULASKI     0700   54 56   10/  1/  2 1022.1F
SAPELO ISLAND    0600   54      20/  4     1022.0S

$$

ANZ835-935-AMZ111-154-330-350-352-354-370-450-454-472-280800-
...C-MAN AND BUOY OBSERVATIONS...

STATION/POSITION TIME  TEMP    WIND        PRES    WAVE   SWELL
                       AIR SEA DIR/SP/G            HT/PER HT/PER/DIR
                 (UTC) (F)     (DEG/KT/KT) (MB)    (FT/S) (FT/S/D)
BUOY 41004       0700   72 74  220/  6/  8 1021.4F   2/16   2/16
BUOY 41008       0700   60 59   30/  4/  6 1021.4F   3/17   3/ 70/17
FOLLY BEACH CMAN 0600   55     340/  3/  3 1022.7F
CAPERS NEARSHORE NOT AVBL
FRIPP NEARSHORE  NOT AVBL


STATION/POSITION TIME  TEMP    WIND        PRES    WAVE   SWELL
                       AIR SEA DIR/SP/G            HT/PER HT/PER/DIR
                 (UTC) (F)     (DEG/KT/KT) (MB)    (FT/S) (FT/S/D)
5E ST. MARYS GA  0700      61                N/A     2/17   2/ 90/17
FRYING PAN BUOY  0700   70 68  200/ 12/ 14 1022.1F   4/15   3/130/15
BUOY 41025       0700   67                 1021.7F   4/15
CAPE LOOKOUT NC  0600   60     220/  5/  5 1021.9F
BUOY 41002       0619   71 74  190/ 10/ 12 1023.5F   5/15   5/ 70/15
BUOY 41010       0700   75 76  110/  8/ 10 1021.7S   4/16   5/100/16
ST AUGUSTINE FL  0700   62     320/  4/  5 1021.7F


$$


USA.gov is the U.S. government's official web portal to all federal, state and local government web resources and services.